EZY32GY EGCC-EDDH

Flight info

Callsign EZY32GY
Flight time 1h 17m
Altitude 35000
Route DESIG L603 LAMSO DCT PETIK P154 SPY N873 ANDIK M105 RIBSO RIBSO3P
Aircraft A21N/M-SDE2E3FGHIRWXY/LB1

Departure

Time 2026-05-04 07:45
Airport Manchester Airport (EGCC)

Arrival

Time 2026-05-04 09:02
Airport Hamburg Helmut Schmidt Airport (EDDH)
Time Latitude Longitude Altitude Speed Heading
2026-05-04 07:20 53.35979 -2.27517 261 ft 0 kts 96°
2026-05-04 07:34 53.35980 -2.27526 260 ft 4 kts 96°
2026-05-04 07:34 53.35983 -2.27570 260 ft 4 kts 103°
2026-05-04 07:34 53.35993 -2.27608 260 ft 4 kts 138°
2026-05-04 07:35 53.36014 -2.27624 260 ft 3 kts 184°
2026-05-04 07:35 53.36017 -2.27623 260 ft 0 kts 186°
2026-05-04 07:40 53.36013 -2.27624 260 ft 2 kts 186°
2026-05-04 07:40 53.35991 -2.27628 260 ft 5 kts 186°
2026-05-04 07:40 53.35946 -2.27629 260 ft 8 kts 179°
2026-05-04 07:40 53.35878 -2.27632 260 ft 12 kts 186°
2026-05-04 07:41 53.35825 -2.27642 260 ft 5 kts 186°
2026-05-04 07:41 53.35737 -2.27674 253 ft 21 kts 223°
2026-05-04 07:41 53.35637 -2.27874 247 ft 23 kts 231°
2026-05-04 07:41 53.35536 -2.28078 239 ft 23 kts 220°
2026-05-04 07:42 53.35390 -2.28166 241 ft 21 kts 186°
2026-05-04 07:42 53.35256 -2.28267 237 ft 22 kts 219°
2026-05-04 07:42 53.35153 -2.28465 233 ft 23 kts 232°
2026-05-04 07:42 53.35051 -2.28677 234 ft 24 kts 230°
2026-05-04 07:43 53.34994 -2.28758 233 ft 9 kts 192°
2026-05-04 07:43 53.34938 -2.28705 235 ft 11 kts 140°
2026-05-04 07:43 53.34878 -2.28621 234 ft 12 kts 140°
2026-05-04 07:43 53.34890 -2.28496 236 ft 14 kts 51°
2026-05-04 07:44 53.34966 -2.28339 238 ft 35 kts 51°
2026-05-04 07:44 53.35272 -2.27707 244 ft 101 kts 51°
2026-05-04 07:44 53.35828 -2.26557 275 ft 150 kts 51°
2026-05-04 07:44 53.36532 -2.25145 690 ft 152 kts 50°
2026-05-04 07:45 53.37227 -2.23798 1230 ft 156 kts 50°
2026-05-04 07:45 53.37955 -2.22318 1613 ft 173 kts 53°
2026-05-04 07:45 53.38727 -2.20587 1998 ft 198 kts 55°
2026-05-04 07:45 53.39549 -2.18566 2351 ft 225 kts 57°
2026-05-04 07:46 53.40454 -2.16190 2633 ft 255 kts 57°
2026-05-04 07:46 53.41550 -2.13840 3517 ft 255 kts 48°
2026-05-04 07:46 53.42700 -2.11615 4416 ft 256 kts 49°
2026-05-04 07:46 53.43857 -2.09312 5310 ft 259 kts 50°
2026-05-04 07:47 53.45008 -2.06943 6147 ft 264 kts 51°
2026-05-04 07:47 53.46173 -2.04507 6909 ft 271 kts 51°
2026-05-04 07:47 53.47360 -2.02000 7651 ft 277 kts 50°
2026-05-04 07:49 53.52115 -1.80024 11349 ft 366 kts 121°
2026-05-04 07:49 53.50779 -1.76266 11613 ft 383 kts 118°
2026-05-04 07:49 53.49693 -1.72074 11966 ft 396 kts 109°
2026-05-04 07:50 53.48858 -1.67629 12533 ft 401 kts 107°
2026-05-04 07:50 53.48064 -1.63122 13141 ft 404 kts 107°
2026-05-04 07:50 53.47268 -1.58573 13729 ft 407 kts 107°
2026-05-04 07:50 53.46463 -1.54001 14243 ft 410 kts 107°
2026-05-04 07:51 53.45640 -1.49408 14722 ft 413 kts 107°
2026-05-04 07:51 53.44816 -1.44839 15197 ft 415 kts 107°
2026-05-04 07:51 53.43980 -1.40196 15671 ft 417 kts 107°
2026-05-04 07:51 53.43132 -1.35511 16128 ft 420 kts 107°
2026-05-04 07:52 53.42278 -1.30804 16586 ft 422 kts 107°
2026-05-04 07:52 53.41421 -1.26080 17044 ft 424 kts 108°
2026-05-04 07:52 53.40574 -1.21397 17471 ft 426 kts 107°
2026-05-04 07:52 53.39705 -1.16622 17908 ft 428 kts 108°
2026-05-04 07:53 53.38831 -1.11828 18340 ft 430 kts 107°
2026-05-04 07:54 53.32542 -0.77750 20922 ft 445 kts 108°
2026-05-04 07:55 53.31617 -0.72790 21302 ft 447 kts 108°
2026-05-04 07:55 53.30684 -0.67809 21680 ft 449 kts 108°
2026-05-04 07:55 53.29744 -0.62808 22080 ft 451 kts 108°
2026-05-04 07:55 53.28811 -0.57854 22452 ft 453 kts 108°
2026-05-04 07:56 53.27863 -0.52824 22854 ft 455 kts 108°
2026-05-04 07:56 53.26910 -0.47768 23276 ft 457 kts 108°
2026-05-04 07:56 53.25947 -0.42689 23686 ft 459 kts 108°
2026-05-04 07:56 53.24976 -0.37592 24035 ft 462 kts 108°
2026-05-04 07:57 53.23997 -0.32448 24367 ft 464 kts 108°
2026-05-04 07:57 53.23017 -0.27305 24679 ft 466 kts 108°
2026-05-04 07:57 53.22026 -0.22128 25048 ft 467 kts 108°
2026-05-04 07:57 53.21038 -0.16967 25488 ft 466 kts 108°
2026-05-04 07:58 53.20052 -0.11813 25932 ft 465 kts 108°
2026-05-04 07:58 53.19074 -0.06742 26379 ft 464 kts 108°
2026-05-04 07:58 53.18083 -0.01633 26808 ft 463 kts 108°
2026-05-04 07:58 53.17083 0.03501 27138 ft 466 kts 108°
2026-05-04 07:59 53.16079 0.08661 27472 ft 467 kts 108°
2026-05-04 07:59 53.15073 0.13807 27916 ft 466 kts 108°
2026-05-04 07:59 53.14069 0.18931 28300 ft 465 kts 108°
2026-05-04 07:59 53.13078 0.23996 28726 ft 464 kts 108°
2026-05-04 08:00 53.12067 0.29112 29156 ft 464 kts 108°
2026-05-04 08:00 53.11056 0.34205 29553 ft 463 kts 108°
2026-05-04 08:00 53.10043 0.39298 29986 ft 462 kts 108°
2026-05-04 08:02 53.02962 0.74742 32045 ft 463 kts 109°
2026-05-04 08:02 53.01939 0.79820 32392 ft 462 kts 109°
2026-05-04 08:02 53.00927 0.84814 32653 ft 462 kts 110°
2026-05-04 08:03 52.99897 0.89864 32958 ft 461 kts 110°
2026-05-04 08:03 52.98871 0.94905 33284 ft 459 kts 110°
2026-05-04 08:03 52.97880 0.99885 33579 ft 458 kts 108°
2026-05-04 08:03 52.97165 1.05060 33789 ft 460 kts 102°
2026-05-04 08:04 52.96588 1.10290 33991 ft 461 kts 101°
2026-05-04 08:04 52.96018 1.15535 34184 ft 461 kts 101°
2026-05-04 08:04 52.95447 1.20771 34378 ft 461 kts 102°
2026-05-04 08:04 52.94864 1.25928 34557 ft 461 kts 102°
2026-05-04 08:05 52.94259 1.31143 34736 ft 461 kts 102°
2026-05-04 08:05 52.93649 1.36364 34911 ft 461 kts 102°
2026-05-04 08:05 52.93034 1.41586 35042 ft 462 kts 102°
2026-05-04 08:05 52.92415 1.46819 35049 ft 461 kts 102°
2026-05-04 08:06 52.91173 1.57258 35020 ft 464 kts 103°
2026-05-04 08:06 52.89917 1.67750 35016 ft 464 kts 103°
2026-05-04 08:08 52.84799 2.09638 35009 ft 467 kts 104°
2026-05-04 08:11 52.78831 2.56882 35001 ft 469 kts 104°
2026-05-04 08:11 52.76783 2.72700 35003 ft 469 kts 104°
2026-05-04 08:12 52.75415 2.83171 35000 ft 468 kts 104°
2026-05-04 08:12 52.74035 2.93708 35000 ft 469 kts 104°
2026-05-04 08:13 52.72831 3.04312 34990 ft 471 kts 101°
2026-05-04 08:13 52.71852 3.14945 34991 ft 472 kts 101°
2026-05-04 08:14 52.70857 3.25655 34994 ft 472 kts 101°
2026-05-04 08:16 52.66778 3.68423 34994 ft 475 kts 102°
2026-05-04 08:16 52.65734 3.79171 34999 ft 475 kts 102°
2026-05-04 08:17 52.64676 3.89918 35006 ft 475 kts 102°
2026-05-04 08:17 52.63610 4.00652 34975 ft 474 kts 102°
2026-05-04 08:19 52.58919 4.43639 34978 ft 477 kts 103°
2026-05-04 08:20 52.57680 4.54367 34984 ft 477 kts 103°
2026-05-04 08:20 52.56419 4.65020 34980 ft 477 kts 104°
2026-05-04 08:21 52.55226 4.75786 34976 ft 479 kts 98°
2026-05-04 08:21 52.55182 4.81278 34975 ft 483 kts 86°
2026-05-04 08:21 52.55841 4.86702 34980 ft 485 kts 72°
2026-05-04 08:22 52.57171 4.91714 34979 ft 485 kts 59°
2026-05-04 08:22 52.59093 4.96269 34981 ft 485 kts 51°
2026-05-04 08:24 52.75041 5.31889 34993 ft 485 kts 69°
2026-05-04 08:24 52.77292 5.42392 34985 ft 484 kts 71°
2026-05-04 08:25 52.79522 5.52914 34990 ft 484 kts 71°
2026-05-04 08:25 52.81766 5.63390 34976 ft 486 kts 71°
2026-05-04 08:27 52.90295 6.03854 34986 ft 486 kts 71°
2026-05-04 08:28 52.92491 6.14457 34977 ft 487 kts 71°
2026-05-04 08:28 52.94695 6.25071 34980 ft 487 kts 71°
2026-05-04 08:29 52.96915 6.35704 34988 ft 487 kts 71°
2026-05-04 08:31 53.05582 6.78234 34993 ft 487 kts 71°
2026-05-04 08:33 53.14106 7.21040 34984 ft 488 kts 72°
2026-05-04 08:35 53.21373 7.58569 34165 ft 483 kts 72°
2026-05-04 08:35 53.22410 7.63935 33298 ft 488 kts 72°
2026-05-04 08:35 53.23453 7.69321 32568 ft 490 kts 73°
2026-05-04 08:35 53.24508 7.74767 31948 ft 493 kts 73°
2026-05-04 08:37 53.30749 8.07577 27511 ft 500 kts 73°
2026-05-04 08:37 53.31788 8.13141 26699 ft 501 kts 73°
2026-05-04 08:37 53.32895 8.18685 25898 ft 503 kts 70°
2026-05-04 08:38 53.34158 8.24157 25084 ft 504 kts 69°
2026-05-04 08:38 53.35423 8.29637 24361 ft 504 kts 70°
2026-05-04 08:38 53.36686 8.35103 23631 ft 504 kts 70°
2026-05-04 08:40 53.46079 8.72279 18693 ft 483 kts 66°
2026-05-04 08:40 53.47455 8.77372 17991 ft 475 kts 65°
2026-05-04 08:40 53.48819 8.82383 17285 ft 467 kts 65°
2026-05-04 08:41 53.50154 8.87304 16704 ft 457 kts 65°
2026-05-04 08:41 53.51435 8.92066 16153 ft 448 kts 65°
2026-05-04 08:41 53.52744 8.96787 15603 ft 444 kts 62°
2026-05-04 08:41 53.54462 9.01070 15027 ft 439 kts 48°
2026-05-04 08:42 53.56662 9.04556 14491 ft 433 kts 36°
2026-05-04 08:42 53.59097 9.07524 13951 ft 429 kts 32°
2026-05-04 08:42 53.61547 9.10373 13317 ft 428 kts 32°
2026-05-04 08:42 53.63997 9.13244 12663 ft 428 kts 32°
2026-05-04 08:43 53.66429 9.16134 12065 ft 424 kts 33°
2026-05-04 08:43 53.68798 9.18974 11657 ft 411 kts 33°
2026-05-04 08:43 53.71084 9.21727 11371 ft 396 kts 33°
2026-05-04 08:43 53.73274 9.24363 11009 ft 377 kts 33°
2026-05-04 08:44 53.75361 9.26880 10611 ft 360 kts 33°
2026-05-04 08:44 53.77362 9.29299 10223 ft 346 kts 33°
2026-05-04 08:46 53.83450 9.51599 8443 ft 305 kts 79°
2026-05-04 08:46 53.83853 9.55102 8139 ft 303 kts 79°
2026-05-04 08:46 53.84263 9.58602 7846 ft 301 kts 78°
2026-05-04 08:46 53.84668 9.62023 7560 ft 300 kts 78°
2026-05-04 08:47 53.85078 9.65484 7264 ft 299 kts 78°
2026-05-04 08:47 53.85488 9.68924 7041 ft 296 kts 78°
2026-05-04 08:47 53.85895 9.72344 6990 ft 295 kts 78°
2026-05-04 08:47 53.86300 9.75762 7053 ft 293 kts 78°
2026-05-04 08:48 53.86671 9.79021 7006 ft 278 kts 82°
2026-05-04 08:48 53.86644 9.82184 7053 ft 263 kts 97°
2026-05-04 08:48 53.86412 9.85249 7013 ft 262 kts 98°
2026-05-04 08:48 53.86177 9.88304 7049 ft 262 kts 98°
2026-05-04 08:49 53.85949 9.91372 7017 ft 262 kts 98°
2026-05-04 08:50 53.84607 10.09760 7043 ft 263 kts 98°
2026-05-04 08:50 53.84383 10.12825 7039 ft 262 kts 98°
2026-05-04 08:51 53.84161 10.15868 7016 ft 260 kts 98°
2026-05-04 08:51 53.84074 10.18927 7052 ft 261 kts 84°
2026-05-04 08:51 53.84635 10.21750 6748 ft 252 kts 51°
2026-05-04 08:51 53.85791 10.23961 6336 ft 251 kts 43°
2026-05-04 08:52 53.86995 10.26075 6053 ft 245 kts 44°
2026-05-04 08:52 53.88130 10.28148 5784 ft 235 kts 45°
2026-05-04 08:52 53.89213 10.30202 5302 ft 230 kts 46°
2026-05-04 08:52 53.90084 10.32363 5033 ft 217 kts 65°
2026-05-04 08:53 53.90372 10.34804 4731 ft 209 kts 91°
2026-05-04 08:54 53.83975 10.39571 2988 ft 173 kts 220°
2026-05-04 08:55 53.83001 10.38365 2992 ft 179 kts 219°
2026-05-04 08:55 53.81977 10.37121 3004 ft 183 kts 222°
2026-05-04 08:55 53.81105 10.35582 3006 ft 180 kts 234°
2026-05-04 08:55 53.80336 10.33922 3013 ft 180 kts 235°
2026-05-04 08:57 53.74850 10.22735 2992 ft 162 kts 233°
2026-05-04 09:01 53.65504 10.03792 661 ft 136 kts 233°
2026-05-04 09:01 53.64896 10.02561 468 ft 137 kts 232°
2026-05-04 09:01 53.64283 10.01328 318 ft 136 kts 231°
2026-05-04 09:01 53.63670 10.00123 136 ft 135 kts 233°
2026-05-04 09:02 53.63095 9.98943 58 ft 124 kts 232°
2026-05-04 09:02 53.62673 9.98091 56 ft 41 kts 229°
2026-05-04 09:02 53.62544 9.97829 51 ft 7 kts 230°
2026-05-04 09:02 53.62501 9.97780 56 ft 9 kts 179°
2026-05-04 09:03 53.62438 9.97831 54 ft 11 kts 143°
2026-05-04 09:03 53.62429 9.97969 56 ft 13 kts 78°
2026-05-04 09:03 53.62468 9.98122 54 ft 15 kts 54°
2026-05-04 09:03 53.62545 9.98263 56 ft 17 kts 50°
2026-05-04 09:04 53.62625 9.98426 51 ft 19 kts 50°
2026-05-04 09:04 53.62713 9.98603 56 ft 20 kts 50°
2026-05-04 09:04 53.62808 9.98794 53 ft 22 kts 51°
2026-05-04 09:04 53.62908 9.98996 56 ft 23 kts 49°
2026-05-04 09:05 53.63016 9.99213 56 ft 25 kts 51°
2026-05-04 09:05 53.63122 9.99457 52 ft 27 kts 55°
2026-05-04 09:05 53.63230 9.99690 56 ft 12 kts 71°
2026-05-04 09:05 53.63177 9.99803 55 ft 14 kts 151°
2026-05-04 09:06 53.63081 9.99882 51 ft 16 kts 152°
2026-05-04 09:07 53.62941 10.00287 56 ft 0 kts 122°